Flag for U.S.A. Weather past 2 weeks in Monterey, California, U.S.A.

Now
69 °F

Sunny.


Feels Like: 69 °F
Forecast: 63 / 70 °F
Wind: 9 mph from West

Location: Monterey Peninsula Airport

Current Time: Aug 30, 2015 at 1:35:32 PM

Latest Report: Aug 30, 2015 at 12:54 PM


Visibility: 10 mi

Pressure: 30.09 "Hg

Humidity: 66%

Dew point: 57 °F

Location of MontereyLocation

Historic Weather in Monterey — Graph

°F

Monterey temperature yesterday

Maximum temperature yesterday: 77 °F (at 11:54 AM)
Minimum temperature yesterday: 63 °F (at 3:54 AM)
Average temperature yesterday: 69 °F

Past Weeks' High & Low Weather Summary

 TemperatureHumidityPressure
High83 °F (Aug 28, 3:54 PM)97% (Aug 26, 5:54 AM)30.11 "Hg (Aug 26, 5:54 AM)
Low55 °F (Aug 26, 6:54 AM)26% (Aug 27, 6:54 PM)29.87 "Hg (Aug 17, 4:02 AM)
Average66 °F72%29.99 "Hg
* Reported Aug 15 11:54 AM — Aug 30 11:54 AM, Monterey, Weather by CustomWeather, © 2015

Note: Actual official high and low records may vary slightly from our data, if they occured in-between our weather recording intervals... More about our weather records

Advertising

Monterey weather history for previous 24 hours

 ConditionsComfort  
Time TempWeatherWind HumidityBarometerVisibility
11:54 AM
Sun, Aug 30
67 °FSunny.13 mph71%30.10 "Hg10 mi
10:54 AM69 °FSunny.6 mph63%30.11 "Hg10 mi
9:54 AM69 °FSunny.No wind63%30.10 "Hg10 mi
8:54 AM66 °FSunny.No wind73%30.10 "Hg10 mi
7:54 AM62 °FSunny.No wind75%30.09 "Hg10 mi
6:54 AM56 °FClear.No wind81%30.07 "Hg10 mi
5:54 AM60 °FClear.No wind83%30.05 "Hg10 mi
4:54 AM61 °FClear.No wind83%30.05 "Hg10 mi
3:54 AM62 °FPassing clouds.No wind83%30.05 "Hg10 mi
2:54 AM63 °FClear.7 mph84%30.05 "Hg10 mi
1:54 AM63 °FClear.5 mph84%30.06 "Hg10 mi
12:54 AM63 °FClear.6 mph75%30.05 "Hg10 mi
11:54 PM
Sat, Aug 29
64 °FClear.7 mph75%30.04 "Hg10 mi
10:54 PM66 °FClear.6 mph70%30.05 "Hg10 mi
9:54 PM66 °FClear.5 mph68%30.05 "Hg10 mi
8:54 PM66 °FClear.9 mph70%30.04 "Hg10 mi
7:54 PM67 °FSunny.7 mph71%30.03 "Hg10 mi
6:54 PM70 °FSunny.8 mph66%30.03 "Hg10 mi
5:54 PM72 °FSunny.9 mph64%30.03 "Hg10 mi
4:54 PM73 °FSunny.8 mph69%30.03 "Hg10 mi
3:54 PM75 °FSunny.12 mph66%30.03 "Hg10 mi
2:54 PM75 °FSunny.12 mph69%30.03 "Hg10 mi
1:54 PM76 °FSunny.12 mph67%30.04 "Hg10 mi
Weather by CustomWeather, © 2015

See weather overviewHow to use our weather pages